TimeCDT,TemperatureF,Dew PointF,Humidity,Sea Level PressureIn,VisibilityMPH,Wind Direction,Wind SpeedMPH,Gust SpeedMPH,PrecipitationIn,Events,Conditions,WindDirDegrees,DateUTC
12:15 AM,37.4,32.0,81,29.65,10.0,SSW,19.6,-,N/A,,Clear,210,2014-03-30 05:15:00
12:35 AM,37.4,32.0,81,29.65,10.0,SSW,18.4,26.5,N/A,,Clear,210,2014-03-30 05:35:00
12:55 AM,37.4,32.0,81,29.64,10.0,SSW,16.1,-,N/A,,Clear,210,2014-03-30 05:55:00
1:15 AM,37.4,32.0,81,29.64,10.0,SSW,18.4,-,N/A,,Clear,210,2014-03-30 06:15:00
1:35 AM,37.4,32.0,81,29.63,10.0,SSW,16.1,-,N/A,,Clear,210,2014-03-30 06:35:00
1:55 AM,37.4,32.0,81,29.64,10.0,SW,16.1,-,N/A,,Clear,220,2014-03-30 06:55:00
2:15 AM,37.4,32.0,81,29.63,10.0,SW,13.8,-,N/A,,Clear,220,2014-03-30 07:15:00
2:35 AM,37.4,33.8,87,29.63,10.0,SW,15.0,-,N/A,,Clear,220,2014-03-30 07:35:00
2:55 AM,37.4,33.8,87,29.65,10.0,WSW,13.8,-,N/A,,Clear,240,2014-03-30 07:55:00
3:15 AM,37.4,35.6,93,29.64,10.0,WSW,11.5,-,N/A,,Scattered Clouds,250,2014-03-30 08:15:00
3:35 AM,39.2,35.6,87,29.65,10.0,West,15.0,-,N/A,,Partly Cloudy,260,2014-03-30 08:35:00
3:55 AM,39.2,33.8,81,29.66,10.0,West,12.7,-,N/A,,Clear,270,2014-03-30 08:55:00
4:15 AM,37.4,33.8,87,29.66,10.0,West,12.7,-,N/A,,Partly Cloudy,280,2014-03-30 09:15:00
4:35 AM,37.4,32.0,81,29.67,10.0,West,10.4,-,N/A,,Clear,280,2014-03-30 09:35:00
4:55 AM,35.6,32.0,87,29.68,10.0,West,9.2,-,N/A,,Clear,280,2014-03-30 09:55:00
5:15 AM,33.8,32.0,93,29.68,10.0,West,8.1,-,N/A,,Clear,280,2014-03-30 10:15:00
5:35 AM,35.6,32.0,87,29.69,10.0,NW,11.5,-,N/A,,Clear,310,2014-03-30 10:35:00
5:55 AM,35.6,32.0,87,29.71,10.0,NW,11.5,-,N/A,,Clear,320,2014-03-30 10:55:00
6:15 AM,35.6,32.0,87,29.72,10.0,NNW,12.7,-,N/A,,Clear,330,2014-03-30 11:15:00
6:35 AM,33.8,32.0,93,29.72,10.0,NNW,12.7,-,N/A,,Clear,340,2014-03-30 11:35:00
6:55 AM,32.0,32.0,100,29.74,10.0,NNW,12.7,-,N/A,,Clear,340,2014-03-30 11:55:00
7:15 AM,32.0,30.2,93,29.76,10.0,North,11.5,-,N/A,,Clear,10,2014-03-30 12:15:00
7:35 AM,32.0,28.4,87,29.77,10.0,North,9.2,-,N/A,,Clear,360,2014-03-30 12:35:00
7:55 AM,32.0,28.4,87,29.79,10.0,North,9.2,-,N/A,,Clear,360,2014-03-30 12:55:00
8:15 AM,32.0,28.4,87,29.79,10.0,North,15.0,20.7,N/A,,Clear,10,2014-03-30 13:15:00
8:35 AM,32.0,28.4,87,29.80,10.0,North,12.7,-,N/A,,Clear,10,2014-03-30 13:35:00
8:55 AM,32.0,28.4,87,29.81,10.0,NNE,15.0,-,N/A,,Clear,20,2014-03-30 13:55:00
9:15 AM,32.0,28.4,87,29.82,10.0,NNE,13.8,-,N/A,,Mostly Cloudy,20,2014-03-30 14:15:00
9:35 AM,32.0,28.4,87,29.83,10.0,NNE,9.2,-,N/A,,Overcast,30,2014-03-30 14:35:00
9:55 AM,32.0,28.4,87,29.84,10.0,NNE,16.1,-,N/A,,Overcast,30,2014-03-30 14:55:00
10:15 AM,32.0,28.4,87,29.86,10.0,NE,12.7,-,N/A,,Overcast,40,2014-03-30 15:15:00
10:35 AM,32.0,26.6,80,29.88,10.0,NNE,15.0,19.6,N/A,,Overcast,30,2014-03-30 15:35:00
10:55 AM,32.0,26.6,80,29.86,10.0,NNE,18.4,-,N/A,,Overcast,20,2014-03-30 15:55:00
11:15 AM,32.0,28.4,87,29.87,10.0,NNE,18.4,-,N/A,,Overcast,20,2014-03-30 16:15:00
11:35 AM,32.0,28.4,87,29.87,10.0,NNE,15.0,-,N/A,,Overcast,30,2014-03-30 16:35:00
11:55 AM,32.0,28.4,87,29.89,10.0,NE,12.7,19.6,N/A,,Overcast,40,2014-03-30 16:55:00
12:15 PM,32.0,28.4,87,29.89,10.0,NE,15.0,-,N/A,,Overcast,40,2014-03-30 17:15:00
12:35 PM,32.0,28.4,87,29.88,10.0,NNE,17.3,-,N/A,,Overcast,30,2014-03-30 17:35:00
12:55 PM,32.0,28.4,87,29.90,10.0,NNE,12.7,21.9,N/A,,Overcast,30,2014-03-30 17:55:00
1:15 PM,32.0,28.4,87,29.90,10.0,NNE,15.0,-,N/A,,Overcast,30,2014-03-30 18:15:00
1:35 PM,32.0,28.4,87,29.90,10.0,NNE,15.0,-,N/A,,Overcast,20,2014-03-30 18:35:00
1:55 PM,32.0,26.6,80,29.92,10.0,NE,13.8,19.6,N/A,,Overcast,40,2014-03-30 18:55:00
2:15 PM,32.0,26.6,80,29.92,10.0,NE,16.1,23.0,N/A,,Overcast,40,2014-03-30 19:15:00
2:35 PM,33.8,26.6,75,29.91,10.0,NE,21.9,25.3,N/A,,Overcast,40,2014-03-30 19:35:00
2:55 PM,35.6,26.6,70,29.90,10.0,NNE,19.6,26.5,N/A,,Overcast,30,2014-03-30 19:55:00
3:15 PM,35.6,26.6,70,29.91,10.0,NE,16.1,26.5,N/A,,Mostly Cloudy,40,2014-03-30 20:15:00
3:35 PM,35.6,26.6,70,29.89,10.0,NE,19.6,25.3,N/A,,Scattered Clouds,40,2014-03-30 20:35:00
3:55 PM,35.6,26.6,70,29.91,10.0,ENE,19.6,24.2,N/A,,Partly Cloudy,60,2014-03-30 20:55:00
4:15 PM,35.6,26.6,70,29.90,10.0,NNE,21.9,27.6,N/A,,Mostly Cloudy,30,2014-03-30 21:15:00
4:35 PM,32.0,24.8,75,29.91,10.0,NNE,20.7,26.5,N/A,,Scattered Clouds,30,2014-03-30 21:35:00
4:55 PM,32.0,24.8,75,29.93,10.0,NNE,21.9,27.6,N/A,,Partly Cloudy,20,2014-03-30 21:55:00
5:15 PM,32.0,24.8,75,29.93,10.0,NNE,23.0,28.8,N/A,,Partly Cloudy,20,2014-03-30 22:15:00
5:35 PM,32.0,23.0,69,29.94,10.0,NNE,24.2,28.8,N/A,,Partly Cloudy,30,2014-03-30 22:35:00
5:55 PM,30.2,23.0,75,29.95,10.0,NNE,24.2,31.1,N/A,,Partly Cloudy,30,2014-03-30 22:55:00
6:15 PM,28.4,21.2,74,29.95,10.0,NNE,27.6,33.4,N/A,,Partly Cloudy,20,2014-03-30 23:15:00
6:35 PM,28.4,19.4,69,29.95,10.0,NE,27.6,34.5,N/A,,Clear,40,2014-03-30 23:35:00
6:55 PM,26.6,21.2,80,29.96,10.0,NE,24.2,34.5,N/A,,Partly Cloudy,40,2014-03-30 23:55:00
7:15 PM,26.6,19.4,74,29.97,10.0,NNE,25.3,35.7,N/A,,Scattered Clouds,20,2014-03-31 00:15:00
7:35 PM,24.8,17.6,74,29.97,10.0,NNE,27.6,33.4,N/A,,Mostly Cloudy,30,2014-03-31 00:35:00
7:55 PM,24.8,15.8,69,29.97,10.0,NNE,31.1,38.0,N/A,,Overcast,30,2014-03-31 00:55:00
8:15 PM,23.0,14.0,68,29.98,10.0,NNE,27.6,33.4,N/A,,Overcast,30,2014-03-31 01:15:00
8:35 PM,23.0,14.0,68,30.00,10.0,NNE,24.2,33.4,N/A,,Overcast,30,2014-03-31 01:35:00
8:55 PM,23.0,14.0,68,30.00,10.0,NNE,31.1,38.0,N/A,,Overcast,30,2014-03-31 01:55:00
9:15 PM,21.2,10.4,63,30.01,10.0,NE,24.2,36.8,N/A,,Overcast,40,2014-03-31 02:15:00
9:35 PM,19.4,8.6,63,30.02,10.0,NNE,29.9,35.7,N/A,,Overcast,30,2014-03-31 02:35:00
9:55 PM,19.4,8.6,63,30.02,10.0,NE,31.1,35.7,N/A,,Overcast,40,2014-03-31 02:55:00
10:15 PM,17.6,6.8,63,30.03,10.0,NNE,28.8,35.7,N/A,,Overcast,30,2014-03-31 03:15:00
10:35 PM,17.6,5.0,58,30.04,10.0,NE,27.6,38.0,N/A,,Overcast,40,2014-03-31 03:35:00
10:55 PM,17.6,6.8,63,30.04,10.0,NNE,24.2,32.2,N/A,,Overcast,30,2014-03-31 03:55:00
11:15 PM,15.8,1.4,53,30.04,10.0,NE,29.9,39.1,N/A,,Overcast,40,2014-03-31 04:15:00
11:35 PM,15.8,5.0,62,30.04,9.0,NNE,26.5,38.0,N/A,,Overcast,30,2014-03-31 04:35:00
11:55 PM,15.8,5.0,62,30.03,9.0,NNE,31.1,36.8,N/A,,Overcast,30,2014-03-31 04:55:00